QPF
0.01 0.01 0.01 0.01 0.01 0.03 0.07 0.09 0.09 0.07 0.11 0.09 0.08 0.10 0.11 0.09 0.07 0.04 0.04 0.05 0.04 0.04 0.05 0.05 0.04 0.03 0.04 0.06 0.07 0.06 0.05 0.05 0.03 0.03 0.04 0.05 0.06 0.07 0.08 0.08 0.07 0.07 0.05
0.00 0.01 0.01 0.01 0.01 0.03 0.06 0.08 0.08 0.07 0.09 0.09 0.07 0.07 0.09 0.09 0.09 0.07 0.05 0.06 0.07 0.06 0.05 0.05 0.06 0.05 0.04 0.03 0.03 0.03 0.03 0.03 0.03 0.03 0.04 0.04 0.05 0.06 0.07 0.08 0.07 0.07 0.05
0.00 0.00 0.01 0.01 0.01 0.03 0.05 0.06 0.07 0.07 0.08 0.09 0.08 0.08 0.09 0.09 0.08 0.07 0.05 0.05 0.07 0.08 0.08 0.07 0.07 0.08 0.06 0.03 0.02 0.02 0.02 0.02 0.02 0.02 0.03 0.04 0.04 0.04 0.06 0.07 0.06 0.06 0.05
0.01 0.00 0.00 0.01 0.01 0.02 0.03 0.05 0.07 0.07 0.07 0.08 0.07 0.08 0.08 0.08 0.07 0.06 0.05 0.04 0.04 0.05 0.06 0.07 0.08 0.09 0.10 0.08 0.06 0.05 0.04 0.04 0.03 0.02 0.02 0.02 0.02 0.03 0.04 0.05 0.05 0.05 0.05
0.01 0.00 0.01 0.01 0.01 0.01 0.03 0.04 0.07 0.07 0.08 0.07 0.06 0.05 0.06 0.06 0.06 0.06 0.05 0.04 0.04 0.04 0.05 0.05 0.06 0.07 0.10 0.10 0.09 0.08 0.07 0.07 0.06 0.04 0.03 0.02 0.02 0.02 0.03 0.04 0.04 0.05 0.05
0.00 0.00 0.00 0.01 0.01 0.01 0.03 0.04 0.05 0.07 0.07 0.07 0.06 0.05 0.04 0.05 0.06 0.06 0.05 0.05 0.05 0.04 0.04 0.04 0.05 0.05 0.06 0.07 0.08 0.09 0.10 0.09 0.08 0.06 0.04 0.03 0.02 0.02 0.02 0.03 0.03 0.04 0.04
0.00 0.01 0.01 0.01 0.01 0.01 0.02 0.03 0.04 0.05 0.06 0.05 0.05 0.05 0.04 0.04 0.04 0.04 0.05 0.05 0.05 0.05 0.05 0.04 0.04 0.04 0.04 0.05 0.05 0.06 0.08 0.08 0.07 0.06 0.05 0.04 0.03 0.02 0.02 0.02 0.02 0.04 0.04
0.00 0.01 0.01 0.01 0.01 0.01 0.01 0.02 0.02 0.03 0.04 0.04 0.03 0.03 0.03 0.03 0.02 0.02 0.03 0.04 0.04 0.03 0.04 0.04 0.04 0.04 0.04 0.04 0.04 0.05 0.05 0.07 0.08 0.07 0.05 0.04 0.03 0.02 0.02 0.02 0.02 0.04 0.04
0.00 0.01 0.01 0.02 0.02 0.02 0.01 0.01 0.02 0.02 0.02 0.04 0.04 0.02 0.02 0.02 0.02 0.02 0.01 0.02 0.03 0.03 0.03 0.03 0.03 0.04 0.04 0.05 0.05 0.04 0.04 0.05 0.07 0.06 0.05 0.03 0.02 0.02 0.03 0.03 0.02 0.03 0.03
0.00 0.01 0.01 0.02 0.02 0.02 0.02 0.02 0.02 0.02 0.02 0.02 0.03 0.03 0.02 0.02 0.02 0.02 0.02 0.02 0.02 0.03 0.03 0.03 0.03 0.03 0.03 0.04 0.05 0.05 0.05 0.04 0.05 0.05 0.04 0.03 0.02 0.02 0.03 0.03 0.03 0.02 0.02
0.01 0.01 0.01 0.01 0.02 0.02 0.02 0.01 0.02 0.02 0.03 0.03 0.02 0.02 0.01 0.01 0.02 0.02 0.02 0.02 0.02 0.02 0.03 0.03 0.03 0.03 0.03 0.03 0.04 0.05 0.04 0.03 0.03 0.03 0.03 0.02 0.01 0.01 0.01 0.02 0.01 0.01 0.01
0.01 0.01 0.01 0.01 0.01 0.01 0.01 0.01 0.01 0.02 0.02 0.03 0.02 0.02 0.01 0.01 0.01 0.02 0.03 0.03 0.03 0.03 0.03 0.03 0.03 0.03 0.02 0.03 0.03 0.03 0.03 0.03 0.02 0.02 0.02 0.01 0.01 0.01 0.00 0.00 0.00 0.01 0.01
0.00 0.00 0.00 0.01 0.01 0.01 0.01 0.01 0.01 0.01 0.02 0.03 0.03 0.02 0.02 0.02 0.02 0.02 0.02 0.03 0.03 0.03 0.04 0.04 0.04 0.03 0.02 0.02 0.02 0.02 0.02 0.02 0.01 0.01 0.01 0.01 0.01 0.00 0.00 0.00 0.00 0.00 0.00
0.00 0.00 0.00 0.01 0.01 0.02 0.01 0.01 0.01 0.01 0.02 0.03 0.03 0.03 0.03 0.02 0.02 0.02 0.02 0.02 0.03 0.03 0.04 0.04 0.04 0.04 0.04 0.03 0.02 0.02 0.02 0.01 0.01 0.01 0.01 0.01 0.01 0.00 0.00 0.00 0.00 0.00 0.00
0.01 0.01 0.01 0.01 0.01 0.02 0.01 0.01 0.02 0.02 0.02 0.03 0.03 0.03 0.03 0.03 0.02 0.02 0.02 0.02 0.02 0.03 0.03 0.04 0.04 0.04 0.04 0.04 0.04 0.03 0.03 0.02 0.01 0.01 0.00 0.00 0.00 0.01 0.01 0.01 0.01 0.00 0.00
0.02 0.02 0.02 0.02 0.02 0.02 0.02 0.02 0.02 0.02 0.02 0.03 0.02 0.02 0.02 0.03 0.02 0.02 0.02 0.02 0.02 0.03 0.04 0.04 0.04 0.04 0.04 0.05 0.05 0.04 0.03 0.03 0.02 0.02 0.01 0.01 0.01 0.01 0.01 0.01 0.01 0.01 0.01
0.02 0.02 0.03 0.03 0.02 0.02 0.02 0.03 0.02 0.03 0.03 0.03 0.03 0.02 0.02 0.02 0.03 0.02 0.02 0.02 0.02 0.02 0.03 0.03 0.04 0.04 0.04 0.05 0.05 0.05 0.04 0.03 0.02 0.02 0.02 0.02 0.02 0.02 0.02 0.01 0.01 0.01 0.00
0.02 0.02 0.03 0.03 0.02 0.02 0.02 0.02 0.02 0.02 0.02 0.03 0.03 0.02 0.02 0.02 0.03 0.03 0.02 0.02 0.02 0.02 0.02 0.02 0.02 0.03 0.03 0.04 0.04 0.04 0.04 0.04 0.04 0.03 0.02 0.02 0.02 0.02 0.01 0.01 0.01 0.00 0.00
0.03 0.03 0.03 0.03 0.03 0.03 0.03 0.02 0.02 0.02 0.02 0.02 0.03 0.02 0.02 0.03 0.03 0.03 0.03 0.02 0.02 0.02 0.02 0.02 0.02 0.02 0.03 0.03 0.04 0.03 0.03 0.03 0.03 0.03 0.03 0.02 0.02 0.01 0.01 0.01 0.01 0.01 0.00
0.03 0.03 0.03 0.03 0.04 0.04 0.03 0.02 0.02 0.02 0.02 0.03 0.03 0.03 0.03 0.03 0.03 0.03 0.03 0.03 0.02 0.02 0.02 0.02 0.02 0.02 0.02 0.03 0.03 0.03 0.03 0.02 0.02 0.02 0.03 0.03 0.02 0.02 0.02 0.02 0.01 0.01 0.01
0.03 0.03 0.03 0.03 0.03 0.04 0.03 0.03 0.03 0.03 0.03 0.03 0.04 0.04 0.04 0.03 0.03 0.04 0.04 0.03 0.03 0.02 0.02 0.03 0.03 0.03 0.03 0.03 0.02 0.02 0.03 0.02 0.02 0.02 0.02 0.02 0.02 0.02 0.02 0.02 0.02 0.02 0.01
0.03 0.03 0.02 0.02 0.03 0.04 0.03 0.03 0.04 0.04 0.03 0.03 0.04 0.05 0.04 0.04 0.04 0.04 0.05 0.04 0.04 0.03 0.03 0.03 0.03 0.03 0.02 0.02 0.02 0.02 0.03 0.03 0.02 0.02 0.01 0.01 0.02 0.02 0.02 0.02 0.02 0.01 0.02
0.03 0.03 0.02 0.02 0.03 0.04 0.04 0.03 0.04 0.04 0.05 0.05 0.06 0.06 0.06 0.05 0.05 0.04 0.04 0.06 0.05 0.03 0.03 0.03 0.03 0.03 0.03 0.02 0.03 0.03 0.03 0.03 0.03 0.02 0.01 0.01 0.02 0.02 0.02 0.02 0.02 0.02 0.02
0.02 0.02 0.02 0.02 0.02 0.04 0.04 0.04 0.04 0.04 0.04 0.05 0.06 0.06 0.05 0.05 0.05 0.04 0.04 0.04 0.05 0.05 0.04 0.03 0.03 0.03 0.02 0.02 0.02 0.03 0.03 0.03 0.03 0.02 0.02 0.02 0.02 0.02 0.02 0.02 0.02 0.01 0.01
0.02 0.02 0.02 0.02 0.03 0.03 0.04 0.05 0.04 0.03 0.04 0.04 0.05 0.06 0.06 0.05 0.05 0.04 0.04 0.03 0.04 0.04 0.05 0.04 0.02 0.02 0.02 0.02 0.02 0.03 0.03 0.03 0.03 0.03 0.02 0.02 0.01 0.02 0.02 0.02 0.02 0.02 0.01
0.02 0.02 0.02 0.03 0.03 0.03 0.04 0.05 0.05 0.04 0.03 0.04 0.04 0.05 0.05 0.05 0.04 0.04 0.04 0.04 0.04 0.04 0.04 0.03 0.03 0.02 0.02 0.02 0.03 0.03 0.03 0.03 0.03 0.03 0.02 0.01 0.01 0.01 0.01 0.01 0.02 0.01 0.01
MSLP
1011.00 1011.79 1012.54 1013.22 1013.82 1014.36 1014.88 1015.40 1015.96 1016.56 1017.20 1017.86 1018.51 1019.10 1019.62 1020.07 1020.44 1020.77 1021.08 1021.40 1021.75 1022.15 1022.60 1023.09 1023.61 1024.15 1024.70 1025.25 1025.80 1026.35 1026.88 1027.38 1027.85 1028.27 1028.62 1028.92 1029.15 1029.34 1029.50 1029.64 1029.77 1029.91 1030.04
1010.71 1011.47 1012.20 1012.86 1013.46 1014.01 1014.53 1015.07 1015.65 1016.27 1016.94 1017.62 1018.29 1018.92 1019.48 1019.96 1020.37 1020.74 1021.08 1021.42 1021.80 1022.21 1022.66 1023.16 1023.69 1024.23 1024.79 1025.35 1025.90 1026.44 1026.96 1027.44 1027.89 1028.28 1028.62 1028.90 1029.15 1029.36 1029.56 1029.76 1029.96 1030.17 1030.38
1010.66 1011.37 1012.05 1012.66 1013.22 1013.73 1014.23 1014.75 1015.32 1015.93 1016.60 1017.28 1017.96 1018.61 1019.20 1019.72 1020.18 1020.59 1020.97 1021.36 1021.76 1022.19 1022.65 1023.15 1023.67 1024.21 1024.75 1025.30 1025.84 1026.36 1026.86 1027.32 1027.75 1028.12 1028.45 1028.73 1028.99 1029.22 1029.46 1029.71 1029.98 1030.25 1030.52
1010.96 1011.62 1012.22 1012.74 1013.21 1013.64 1014.07 1014.53 1015.04 1015.61 1016.24 1016.89 1017.56 1018.20 1018.80 1019.36 1019.86 1020.32 1020.76 1021.19 1021.63 1022.09 1022.57 1023.06 1023.57 1024.09 1024.61 1025.13 1025.64 1026.14 1026.62 1027.07 1027.48 1027.86 1028.18 1028.47 1028.74 1028.99 1029.25 1029.53 1029.83 1030.15 1030.46
1011.65 1012.25 1012.75 1013.16 1013.51 1013.82 1014.13 1014.48 1014.89 1015.37 1015.91 1016.50 1017.12 1017.74 1018.33 1018.90 1019.43 1019.94 1020.44 1020.92 1021.41 1021.90 1022.40 1022.90 1023.40 1023.89 1024.38 1024.87 1025.36 1025.84 1026.31 1026.75 1027.17 1027.55 1027.88 1028.18 1028.45 1028.71 1028.98 1029.26 1029.56 1029.89 1030.22
1012.66 1013.21 1013.62 1013.91 1014.11 1014.26 1014.42 1014.62 1014.89 1015.24 1015.67 1016.16 1016.69 1017.25 1017.81 1018.37 1018.92 1019.47 1020.02 1020.56 1021.10 1021.63 1022.16 1022.67 1023.16 1023.64 1024.10 1024.57 1025.04 1025.50 1025.96 1026.42 1026.85 1027.24 1027.60 1027.91 1028.18 1028.44 1028.68 1028.94 1029.22 1029.52 1029.84
1013.87 1014.38 1014.71 1014.87 1014.92 1014.92 1014.91 1014.94 1015.05 1015.24 1015.52 1015.88 1016.30 1016.77 1017.28 1017.81 1018.36 1018.93 1019.52 1020.11 1020.70 1021.29 1021.84 1022.37 1022.87 1023.35 1023.80 1024.25 1024.70 1025.16 1025.63 1026.10 1026.55 1026.97 1027.35 1027.68 1027.96 1028.20 1028.41 1028.63 1028.86 1029.11 1029.39
1015.11 1015.60 1015.85 1015.91 1015.84 1015.68 1015.51 1015.38 1015.32 1015.35 1015.47 1015.68 1015.98 1016.34 1016.76 1017.24 1017.77 1018.34 1018.95 1019.59 1020.23 1020.86 1021.47 1022.03 1022.55 1023.03 1023.48 1023.93 1024.38 1024.84 1025.32 1025.80 1026.28 1026.73 1027.13 1027.48 1027.76 1027.99 1028.18 1028.35 1028.51 1028.70 1028.91
1016.19 1016.69 1016.90 1016.88 1016.71 1016.44 1016.14 1015.87 1015.66 1015.53 1015.51 1015.57 1015.72 1015.96 1016.28 1016.68 1017.16 1017.72 1018.34 1019.01 1019.69 1020.37 1021.02 1021.63 1022.18 1022.68 1023.14 1023.59 1024.04 1024.51 1025.00 1025.50 1026.00 1026.48 1026.91 1027.28 1027.58 1027.80 1027.97 1028.10 1028.21 1028.33 1028.48
1017.02 1017.52 1017.72 1017.67 1017.44 1017.10 1016.71 1016.34 1016.02 1015.77 1015.61 1015.53 1015.54 1015.65 1015.85 1016.16 1016.58 1017.10 1017.70 1018.38 1019.09 1019.82 1020.52 1021.16 1021.75 1022.28 1022.77 1023.23 1023.69 1024.16 1024.65 1025.17 1025.69 1026.19 1026.65 1027.05 1027.37 1027.61 1027.77 1027.88 1027.95 1028.03 1028.13
1017.53 1018.06 1018.27 1018.22 1017.98 1017.62 1017.20 1016.78 1016.39 1016.05 1015.78 1015.58 1015.46 1015.43 1015.51 1015.71 1016.04 1016.49 1017.06 1017.73 1018.46 1019.21 1019.95 1020.64 1021.27 1021.84 1022.35 1022.82 1023.28 1023.76 1024.25 1024.77 1025.30 1025.82 1026.31 1026.74 1027.10 1027.36 1027.55 1027.66 1027.73 1027.78 1027.85
1017.79 1018.34 1018.59 1018.57 1018.36 1018.03 1017.63 1017.20 1016.78 1016.38 1016.02 1015.72 1015.48 1015.32 1015.27 1015.35 1015.57 1015.95 1016.46 1017.10 1017.82 1018.58 1019.35 1020.08 1020.74 1021.34 1021.88 1022.37 1022.83 1023.30 1023.79 1024.30 1024.84 1025.37 1025.88 1026.35 1026.74 1027.05 1027.27 1027.41 1027.50 1027.56 1027.61
1017.92 1018.49 1018.77 1018.81 1018.67 1018.39 1018.04 1017.63 1017.20 1016.77 1016.35 1015.96 1015.61 1015.33 1015.16 1015.11 1015.23 1015.51 1015.95 1016.54 1017.23 1017.99 1018.76 1019.51 1020.21 1020.83 1021.38 1021.88 1022.35 1022.81 1023.29 1023.79 1024.32 1024.85 1025.38 1025.87 1026.30 1026.66 1026.93 1027.12 1027.24 1027.31 1027.37
1018.03 1018.61 1018.93 1019.04 1018.97 1018.76 1018.47 1018.10 1017.69 1017.24 1016.77 1016.31 1015.87 1015.48 1015.19 1015.04 1015.04 1015.23 1015.59 1016.12 1016.76 1017.50 1018.26 1019.01 1019.72 1020.36 1020.92 1021.42 1021.89 1022.34 1022.79 1023.27 1023.78 1024.31 1024.84 1025.34 1025.81 1026.20 1026.52 1026.75 1026.91 1027.01 1027.08
1018.24 1018.82 1019.17 1019.33 1019.33 1019.20 1018.97 1018.64 1018.25 1017.79 1017.29 1016.77 1016.26 1015.79 1015.41 1015.16 1015.07 1015.17 1015.45 1015.91 1016.50 1017.19 1017.92 1018.66 1019.36 1019.99 1020.55 1021.04 1021.50 1021.92 1022.36 1022.81 1023.29 1023.79 1024.30 1024.81 1025.28 1025.70 1026.04 1026.30 1026.49 1026.61 1026.69
1018.60 1019.16 1019.54 1019.74 1019.80 1019.73 1019.54 1019.25 1018.86 1018.40 1017.88 1017.32 1016.77 1016.25 1015.81 1015.50 1015.35 1015.38 1015.59 1015.98 1016.51 1017.14 1017.83 1018.52 1019.18 1019.79 1020.33 1020.80 1021.23 1021.63 1022.03 1022.44 1022.88 1023.35 1023.83 1024.31 1024.76 1025.17 1025.52 1025.80 1026.00 1026.13 1026.20
1019.11 1019.65 1020.03 1020.27 1020.36 1020.32 1020.16 1019.89 1019.52 1019.05 1018.53 1017.96 1017.39 1016.86 1016.40 1016.07 1015.89 1015.88 1016.04 1016.37 1016.84 1017.40 1018.02 1018.65 1019.25 1019.81 1020.31 1020.74 1021.13 1021.49 1021.85 1022.21 1022.60 1023.00 1023.43 1023.86 1024.27 1024.65 1024.98 1025.24 1025.43 1025.56 1025.63
1019.73 1020.25 1020.62 1020.87 1020.97 1020.95 1020.81 1020.55 1020.18 1019.72 1019.21 1018.66 1018.11 1017.61 1017.18 1016.86 1016.69 1016.67 1016.81 1017.09 1017.49 1017.98 1018.52 1019.06 1019.59 1020.07 1020.50 1020.87 1021.20 1021.51 1021.80 1022.11 1022.43 1022.77 1023.12 1023.48 1023.83 1024.16 1024.44 1024.66 1024.83 1024.94 1025.01
1020.41 1020.89 1021.26 1021.50 1021.61 1021.59 1021.45 1021.19 1020.83 1020.40 1019.91 1019.41 1018.92 1018.47 1018.11 1017.85 1017.72 1017.72 1017.85 1018.10 1018.44 1018.84 1019.28 1019.72 1020.14 1020.53 1020.87 1021.16 1021.42 1021.65 1021.88 1022.11 1022.35 1022.61 1022.88 1023.16 1023.43 1023.68 1023.91 1024.09 1024.23 1024.33 1024.39
1021.10 1021.56 1021.91 1022.15 1022.25 1022.22 1022.08 1021.82 1021.48 1021.08 1020.64 1020.20 1019.79 1019.43 1019.16 1018.98 1018.91 1018.95 1019.08 1019.30 1019.57 1019.89 1020.22 1020.55 1020.86 1021.13 1021.36 1021.56 1021.73 1021.88 1022.03 1022.17 1022.33 1022.50 1022.68 1022.87 1023.06 1023.24 1023.40 1023.54 1023.65 1023.75 1023.82
1021.79 1022.24 1022.58 1022.80 1022.90 1022.87 1022.72 1022.47 1022.15 1021.78 1021.40 1021.04 1020.72 1020.46 1020.28 1020.19 1020.19 1020.26 1020.40 1020.58 1020.80 1021.03 1021.26 1021.47 1021.65 1021.80 1021.92 1022.02 1022.09 1022.16 1022.21 1022.28 1022.34 1022.42 1022.51 1022.61 1022.72 1022.83 1022.94 1023.04 1023.14 1023.24 1023.33
1022.51 1022.95 1023.28 1023.50 1023.58 1023.55 1023.40 1023.16 1022.86 1022.54 1022.21 1021.92 1021.69 1021.52 1021.43 1021.41 1021.46 1021.56 1021.70 1021.86 1022.02 1022.16 1022.29 1022.39 1022.46 1022.50 1022.51 1022.51 1022.49 1022.46 1022.43 1022.41 1022.39 1022.38 1022.39 1022.41 1022.44 1022.48 1022.55 1022.62 1022.72 1022.82 1022.95
1023.29 1023.72 1024.04 1024.25 1024.33 1024.30 1024.15 1023.92 1023.65 1023.36 1023.08 1022.85 1022.68 1022.58 1022.55 1022.59 1022.68 1022.79 1022.92 1023.04 1023.14 1023.22 1023.26 1023.26 1023.24 1023.18 1023.11 1023.01 1022.92 1022.81 1022.71 1022.60 1022.51 1022.42 1022.35 1022.29 1022.26 1022.25 1022.27 1022.32 1022.41 1022.53 1022.69
1024.14 1024.56 1024.88 1025.08 1025.15 1025.11 1024.97 1024.76 1024.50 1024.24 1024.00 1023.81 1023.68 1023.62 1023.63 1023.68 1023.78 1023.89 1023.99 1024.08 1024.14 1024.16 1024.13 1024.07 1023.98 1023.86 1023.72 1023.57 1023.42 1023.25 1023.08 1022.92 1022.75 1022.60 1022.46 1022.33 1022.24 1022.18 1022.16 1022.19 1022.27 1022.40 1022.56
1025.07 1025.47 1025.77 1025.95 1026.01 1025.96 1025.83 1025.62 1025.39 1025.15 1024.93 1024.76 1024.66 1024.61 1024.62 1024.67 1024.76 1024.85 1024.93 1024.98 1025.01 1024.99 1024.93 1024.84 1024.72 1024.57 1024.40 1024.22 1024.03 1023.83 1023.62 1023.41 1023.19 1022.98 1022.78 1022.60 1022.45 1022.34 1022.28 1022.28 1022.33 1022.43 1022.59
1026.02 1026.38 1026.64 1026.79 1026.84 1026.78 1026.65 1026.46 1026.25 1026.03 1025.83 1025.68 1025.58 1025.52 1025.52 1025.56 1025.62 1025.68 1025.74 1025.77 1025.78 1025.75 1025.69 1025.60 1025.48 1025.34 1025.18 1025.00 1024.80 1024.58 1024.36 1024.11 1023.86 1023.61 1023.36 1023.13 1022.93 1022.78 1022.66 1022.61 1022.61 1022.67 1022.78
Thickness
5544 5543 5543 5545 5546 5548 5550 5552 5553 5553 5553 5555 5555 5554 5553 5553 5551 5551 5551 5551 5550 5550 5550 5550 5548 5547 5547 5546 5544 5543 5542 5540 5539 5540 5538 5535 5534 5534 5532 5532 5532 5532 5532
5536 5535 5535 5536 5537 5539 5541 5543 5544 5545 5545 5547 5547 5547 5545 5544 5543 5542 5542 5542 5542 5542 5542 5542 5541 5540 5539 5538 5537 5536 5534 5532 5532 5533 5534 5532 5527 5524 5521 5521 5520 5520 5520
5528 5526 5526 5526 5528 5530 5531 5533 5535 5536 5536 5538 5537 5536 5534 5533 5533 5533 5533 5533 5533 5533 5533 5533 5532 5532 5531 5531 5530 5529 5528 5526 5524 5525 5528 5529 5529 5518 5513 5510 5509 5509 5510
5518 5518 5517 5518 5519 5520 5521 5523 5525 5526 5527 5527 5528 5530 5531 5530 5529 5527 5526 5525 5524 5525 5524 5524 5524 5524 5523 5523 5522 5520 5520 5520 5518 5515 5514 5516 5517 5514 5508 5502 5500 5499 5499
5508 5508 5508 5508 5509 5510 5511 5512 5513 5515 5516 5517 5519 5521 5522 5522 5520 5518 5517 5517 5516 5515 5515 5516 5515 5515 5514 5514 5513 5512 5511 5511 5511 5508 5506 5505 5504 5505 5504 5499 5493 5490 5489
5497 5498 5498 5498 5499 5500 5500 5502 5504 5505 5506 5508 5509 5510 5511 5511 5510 5509 5509 5508 5507 5507 5506 5506 5507 5506 5505 5505 5504 5503 5502 5502 5501 5499 5498 5498 5498 5497 5496 5494 5488 5484 5480
5484 5485 5486 5487 5488 5489 5491 5492 5494 5496 5497 5499 5500 5500 5500 5501 5502 5502 5500 5499 5499 5498 5498 5497 5497 5497 5496 5495 5494 5493 5493 5492 5491 5490 5489 5487 5488 5486 5485 5483 5479 5476 5472
5472 5473 5474 5475 5477 5479 5480 5482 5485 5486 5488 5489 5490 5491 5491 5491 5492 5492 5492 5491 5491 5491 5489 5488 5488 5487 5486 5485 5484 5483 5483 5482 5481 5480 5479 5477 5476 5475 5473 5472 5470 5467 5465
5460 5461 5462 5464 5466 5468 5471 5473 5475 5477 5479 5480 5480 5481 5481 5481 5482 5482 5482 5482 5481 5480 5479 5478 5478 5477 5476 5476 5475 5474 5473 5472 5471 5469 5468 5466 5465 5463 5462 5460 5460 5460 5460
5449 5450 5451 5452 5454 5457 5460 5462 5465 5467 5468 5470 5471 5471 5470 5471 5471 5471 5472 5472 5471 5470 5469 5468 5468 5467 5466 5465 5464 5463 5462 5462 5460 5458 5457 5456 5454 5452 5450 5449 5448 5448 5450
5438 5439 5440 5441 5443 5446 5449 5452 5454 5456 5457 5458 5459 5459 5459 5460 5460 5460 5461 5461 5461 5460 5460 5459 5458 5457 5456 5455 5454 5453 5452 5451 5449 5447 5446 5444 5442 5441 5439 5437 5436 5435 5436
5426 5427 5429 5430 5433 5436 5439 5441 5444 5445 5446 5447 5447 5448 5448 5448 5449 5449 5449 5449 5450 5449 5449 5448 5447 5446 5445 5444 5443 5442 5440 5439 5438 5437 5435 5433 5431 5429 5427 5426 5424 5423 5422
5417 5418 5418 5420 5423 5426 5428 5430 5432 5433 5435 5436 5436 5437 5437 5438 5438 5438 5437 5437 5437 5437 5437 5436 5435 5435 5433 5432 5431 5430 5428 5427 5426 5425 5423 5421 5419 5417 5415 5414 5412 5410 5409
5408 5409 5409 5410 5412 5415 5417 5419 5420 5422 5423 5424 5425 5426 5427 5427 5426 5425 5425 5425 5424 5425 5424 5424 5423 5422 5421 5420 5418 5417 5416 5414 5412 5411 5410 5408 5407 5405 5403 5402 5400 5398 5396
5397 5398 5399 5400 5401 5404 5406 5408 5410 5411 5412 5413 5414 5415 5415 5414 5413 5413 5412 5412 5411 5411 5411 5410 5409 5408 5407 5406 5406 5404 5403 5401 5399 5397 5396 5394 5392 5391 5390 5389 5387 5385 5384
5386 5387 5388 5389 5390 5393 5395 5397 5398 5399 5400 5401 5402 5402 5403 5402 5401 5400 5399 5398 5398 5397 5396 5396 5395 5395 5394 5393 5391 5391 5389 5388 5386 5383 5381 5379 5378 5377 5376 5375 5373 5372 5370
5375 5375 5376 5377 5378 5381 5383 5384 5385 5387 5388 5388 5389 5389 5389 5390 5389 5387 5386 5385 5384 5383 5382 5382 5382 5381 5380 5379 5378 5376 5375 5374 5371 5369 5367 5366 5364 5363 5362 5361 5359 5358 5356
5364 5364 5364 5366 5367 5369 5371 5372 5373 5374 5375 5375 5375 5375 5375 5375 5375 5374 5373 5372 5371 5370 5369 5368 5367 5367 5366 5365 5364 5362 5360 5359 5357 5355 5353 5352 5350 5349 5348 5347 5346 5344 5344
5353 5353 5353 5354 5356 5358 5359 5360 5361 5362 5363 5363 5363 5362 5362 5362 5362 5361 5360 5359 5358 5357 5355 5354 5353 5352 5351 5350 5349 5347 5345 5344 5342 5340 5338 5337 5336 5335 5334 5333 5332 5331 5331
5342 5341 5342 5343 5345 5347 5348 5349 5349 5349 5350 5350 5350 5349 5349 5349 5349 5348 5347 5346 5345 5343 5341 5339 5338 5337 5337 5335 5334 5333 5331 5330 5328 5326 5324 5323 5322 5321 5320 5319 5319 5318 5318
5332 5332 5332 5333 5333 5334 5336 5336 5337 5336 5336 5336 5336 5336 5336 5335 5335 5334 5333 5332 5330 5328 5326 5325 5323 5323 5322 5321 5319 5318 5317 5316 5314 5312 5311 5310 5308 5307 5306 5305 5305 5305 5304
5321 5321 5321 5322 5321 5322 5323 5324 5323 5323 5323 5323 5323 5322 5321 5321 5320 5319 5318 5316 5315 5313 5311 5309 5308 5307 5306 5305 5304 5303 5302 5301 5299 5298 5297 5295 5294 5293 5293 5292 5292 5290 5289
5310 5309 5310 5309 5308 5309 5310 5311 5309 5309 5309 5309 5308 5307 5307 5306 5305 5304 5303 5302 5300 5299 5297 5296 5294 5293 5291 5290 5290 5289 5288 5286 5285 5284 5283 5281 5280 5279 5279 5279 5278 5277 5276
5298 5298 5298 5297 5296 5296 5296 5296 5295 5295 5295 5295 5294 5293 5292 5291 5290 5289 5289 5288 5287 5286 5284 5282 5281 5279 5277 5276 5275 5275 5273 5272 5270 5269 5268 5267 5266 5265 5265 5264 5264 5263 5263
5287 5286 5285 5284 5283 5283 5282 5282 5282 5282 5281 5281 5281 5280 5278 5277 5276 5275 5274 5273 5272 5271 5270 5269 5267 5266 5265 5264 5262 5261 5260 5259 5258 5255 5254 5253 5253 5253 5252 5251 5250 5249 5248
5275 5273 5273 5272 5270 5269 5269 5269 5268 5269 5269 5269 5268 5267 5265 5264 5263 5262 5260 5258 5257 5256 5255 5254 5254 5253 5252 5251 5250 5249 5248 5246 5245 5242 5242 5242 5241 5240 5239 5238 5237 5236 5234